PERMIT #
APPLICANT
START DATE
END DATE
LOCATION
DESCRIPTION OF WORK
EP 43-19 Erica Bockermann 07/01/2019 08/18/2019 4824 Elata Ave Replacement of temporary pavement patch in road.
EP 42-19 D+D Custom Homes 06/19/2019 08/18/2019 7536 Rockaway Replacement of temporary pavement patch in road.
EP 41-19 SoCal Gas 06/19/2019 08/18/2019 57843 Hidden Gold Drive New Service Install
EP 40-19 SoCal Gas 06/19/2019 08/23/2019 7323 Acoma Trail Abandon Service
EP 39-19 Spectrum 06/12/2019 08/12/2019 Yucca Trail and Barberry Ave Trench work

EP 38-19

SCE 06/12/2019 08/12/2019 55578 Dersert Gold Drive Placing two poles
EP 37-19 SCE 06/12/2019 08/12/2019 7946 Palm Ave Placing two poles
EP 36-19 SCE 06/12/2019 08/12/2019 Various Placing two poles
EP 35-19 Bob Stadum 06/06/2019 08/05/2019 7453 Elk Trail Replacement of temporary pavement patch in road.
EP 34-19 SCE 06/04/2019 12/31/2019 Various Annual Permit
EP 33-19 Neil Rauschenberg 05/29/2019 07/29/2019 58695 Arcadia Trail Replacement of temporary pavement patch in road.
EP 32-19 Neil Rauschenberg 05/29/2019 07/29/2019 58685 Delano Trail Replacement of temporary pavement patch in road.
EP 31-19 Town 05/28/2019 07/29/2019 Various Removal and replacement of damage sidewalk
EP 30-19 So Cal Gas 05/17/2019 07/22/2019 56548 Taos Trail AFT - Emergency work
EP 29-19 SCE 05/17/2019 07/22/2019 7559 Pinon Road Replace pole
EP 28-19 Frontier California Inc 05/08/2019 07/08/2019 Airway Ave and Outerhighway Install new service
EP 27-19 Carmen Montano 05/06/2019 07/05/2019 0 Acoma Trail  
EP 26-19 So Cal Gas 04/29/2019 07/05/2019 58115 Desert Gold Drive Install new service
EP 25-19 Joseph Swann 04/29/2019 06/28/2019 7590 Shafter Ave Install new service
EP 24-19 SCE 04/25/2019 06/24/2019 56807 Carlyle Drive Replace pole
EP 23-19 David Webb 04/25/2019 06/24/2019 58096 Elorado Drive Replace pole
EP 22-19 David Webb 04/25/2019 06/24/2019 58661 Santa Maria Drive Replace pole
EP 21-19 SCE 04/24/2019 07/24/2019 57415 Encilia Drive Replace pole
EP 20-19 SCE 04/24/2019 07/24/2019 6687 Balsa Ave Replace pole
EP 19-19 SCE 04/24/2019 07/24/2019 58868 Carmelita Court Replace pole
EP 18-19          
EP 17-19          
EP 16-19          
EP 15-19 Spectrum 04/09/2019 06/10/2019 58501 Twentynine Palms Hwy Replacement of aerial cable
EP 14-19 Spectrum 04/09/2019 06/10/2019 58501 Twentynine Palms Hwy Bore
EP 13-19          
EP 12-19 David Morreal 03/14/2019 05/14/2019 7391 Valley Vista Ave Driveway Approach
EP 11-19 So Cal Gas 03/04/2019 05/04/2019 58670 Delano Trail Install new service
EP 10-19 Debbie Jensen 02/04/2019 04/04/2019 54552 Primavera Drive Curb installation
EP 09-19 Daniel Dobbiws 02/04/2019 04/04/2019 56866 Ivanhoe Drive Driveway Approach
EP 08-19 HDWD 02/05/2019 04/05/2019 57950 Paxton Road Driveway Approach
EP 07-19 SBC Special Dist.     Pioneertown Rd  
EP 06-19 So Cal Gas 01/23/2019 03/23/2019 56150 Twentynine Palms Hwy Install new service
EP 05-19 So Cal Gas 01/23/2019 03/23/2019 56610 Free Gold Drive Install new service
EP 04-19 So Cal Gas 01/23/2019 03/23/2019 57846 Hidden Gold Drive Install new service
EP 03-19 So Cal Gas 01/02/2019 03/02/2019 56916 Twentynine Palms Hwy ATF - Emergency Service
EP 02-19          
EP 01-19